Airport Information

KCOE - Pappy Boyington Airport

KCOE 251056Z AUTO 03004KT 10SM OVC050 03/02 A3021 RMK AO2 SLP261 T00330022


  • General Information

  • Coordinates: N 47°46'27"/ W 116°49'10"
  • Location: N/A
  • Surveyed Elevation: 2320 MSL

Operations

Flow Name Active Runways Conditions

Green background denotes normal operations.


Common Frequencies

Callsign Frequency Position Name

More at the Document Center


Charts